This demonstration page uses our WeatherBlox Daily Observations layout. Learn more.

Left ArrowRight Arrow

39.92423, -83.80882

Hourly Observations for July 22, 2021

Temp ( °F °C ) Dew Point ( °F °C ) Humidity (%) Winds ( mph kmh ) Pressure ( in mb ) Visibility ( mi km ) Precip ( " mm )
12:56 am 00:56 Clear 61 16.1 61 16.1 100 100 N N/A 30.19 1022 10 16 N/A
1:56 am 01:56 Clear 58 14.4 58 14.4 100 100 N N/A 30.18 1022 8 13 N/A
2:56 am 02:56 Hazy 57 14 N/A N/A N N/A 30.19 1022 5 8 N/A
3:51 am 03:51 Clear with Mist and Fog 55 13 N/A N/A N N/A 30.20 1023 1 2 N/A
3:56 am 03:56 Clear with Fog 55 13 N/A N/A N N/A 30.19 1023 1 1 N/A
4:07 am 04:07 Clear with Mist and Fog 55 13 N/A N/A N N/A 30.20 1023 1 2 N/A
4:09 am 04:09 Clear with Mist and Fog 55 13 N/A N/A N N/A 30.20 1023 3 5 N/A
4:49 am 04:49 Clear with Mist and Fog 57 14 N/A N/A N N/A 30.21 1023 2 3 N/A
4:56 am 04:56 Clear with Mist and Fog 55 13 N/A N/A N N/A 30.20 1023 1 2 N/A
5:21 am 05:21 Mostly Cloudy with Fog 55 13 N/A N/A N N/A 30.21 1023 1 1 N/A
5:29 am 05:29 Mostly Cloudy with Fog 54 12 N/A N/A N N/A 30.21 1023 0 0 N/A
5:56 am 05:56 Cloudy with Fog 54 12 N/A N/A E 3 6 30.22 1023 1 1 N/A
6:23 am 06:23 Cloudy with Fog 54 12 N/A N/A NNE 3 6 30.23 1024 0 0 N/A
6:32 am 06:32 Mostly Cloudy with Mist and Fog 54 12 N/A N/A ENE 3 6 30.23 1024 1 1 N/A
6:34 am 06:34 Mostly Cloudy with Haze 54 12 N/A N/A ENE 3 6 30.23 1024 4 6 N/A
6:40 am 06:40 Partly Cloudy with Mist and Fog 54 12 N/A N/A ENE 3 6 30.23 1024 3 4 N/A
6:49 am 06:49 Mostly Cloudy with Mist and Fog 52 11 N/A N/A ENE 3 6 30.24 1024 1 2 N/A
6:54 am 06:54 Sunny with Mist and Fog 54 12 N/A N/A N N/A 30.23 1024 1 2 N/A
6:56 am 06:56 Sunny with Mist and Fog 54 12 N/A N/A ENE 3 6 30.23 1024 3 4 N/A
7:04 am 07:04 Hazy 54 12 N/A N/A N N/A 30.23 1024 4 6 N/A
7:56 am 07:56 Hazy 57 14 N/A N/A N N/A 30.23 1024 5 8 N/A
8:56 am 08:56 Sunny 63 17 N/A N/A E 3 6 30.25 1024 10 16 N/A
9:56 am 09:56 Sunny 69 20.6 61 16.1 76 76 E 3 6 30.25 1024 10 16 N/A
10:56 am 10:56 Sunny 72 22.2 57 13.9 59 59 ENE 7 11 30.24 1024 10 16 N/A
11:56 am 11:56 Sunny 73 22.8 59 15 62 62 E 7 11 30.25 1024 10 16 N/A
12:56 pm 12:56 Sunny 74 23.3 60 15.6 62 62 VRB 6 9 30.24 1024 10 16 N/A
1:56 pm 13:56 Mostly Sunny 75 23.9 60 15.6 60 60 VRB 5 7 30.22 1023 10 16 N/A
2:56 pm 14:56 Partly Cloudy 77 25 60 15.6 56 56 E 6 9 30.21 1023 10 16 N/A
3:56 pm 15:56 Mostly Sunny 77 25 62 16.7 60 60 SSE 6 9 30.21 1023 10 16 N/A
4:56 pm 16:56 Sunny 78 25.6 60 15.6 54 54 E 7 11 30.20 1023 10 16 N/A
5:56 pm 17:56 Hazy 77 25 61 16.1 58 58 ENE 6 9 30.20 1023 5 8 N/A
6:56 pm 18:56 Sunny 75 23.9 60 15.6 60 60 E 3 6 30.20 1023 10 16 N/A
7:56 pm 19:56 Sunny 73 22.8 66 18.9 79 79 N N/A 30.20 1023 10 16 N/A
8:56 pm 20:56 Sunny 69 20.6 66 18.9 90 90 N N/A 30.21 1023 10 16 N/A
9:56 pm 21:56 Clear 67 19.4 63 17.2 87 87 N N/A 30.21 1023 10 16 N/A
10:56 pm 22:56 Clear 63 17.2 63 17.2 100 100 N N/A 30.21 1023 10 16 N/A
11:56 pm 23:56 Clear 63 17 N/A N/A N N/A 30.21 1023 10 16 N/A

Powered by AerisWeather